Location: Quaker Farms
(41.4276°N, 73.1557°W)
Time: 21:04:38
(UTC+00:00)

Explorer 7 - Visible Passes

Search period start: 13 June 2021 00:00
Search period end: 23 June 2021 00:00
Orbit: 484 x 677 km, 50.3° (Epoch: 12 June)

Date Brightness Start Highest point End Pass type
(mag) Time Alt. Az. Time Alt. Az. Time Alt. Az.
13 Jun 7.4 04:18:12 59° ENE 04:18:12 59° ENE 04:22:02 10° ENE visible
13 Jun 8.6 05:54:24 13° W 05:58:15 35° NNW 06:02:25 10° NE visible
13 Jun 9.2 07:35:50 10° NW 07:39:42 26° N 07:43:23 10° ENE visible
14 Jun 9.3 02:44:40 13° E 02:44:40 13° E 02:45:18 10° E visible
14 Jun 7.2 04:20:49 57° W 04:21:43 75° NNW 04:26:24 10° NE visible
14 Jun 8.9 05:58:38 10° WNW 06:02:49 30° NNW 06:06:49 10° NE visible
14 Jun 9.1 07:40:21 10° NW 07:44:19 28° N 07:48:05 10° ENE visible
15 Jun 7.8 02:46:16 36° ESE 02:46:16 36° ESE 02:50:02 10° ENE visible
15 Jun 7.8 04:22:17 15° W 04:26:09 54° NNW 04:30:44 10° NE visible
15 Jun 9.1 06:03:22 10° WNW 06:07:25 27° N 06:11:18 10° NE visible
15 Jun 8.9 07:44:47 10° NW 07:48:54 32° NNE 07:52:48 10° E visible
16 Jun 9.1 01:09:04 10° SE 01:10:02 11° SE 01:11:00 10° ESE visible
16 Jun 7.2 02:45:05 10° SW 02:49:52 57° SE 02:54:33 10° ENE visible
16 Jun 8.4 04:26:02 10° W 04:30:37 42° NNW 04:35:03 10° NE visible
16 Jun 9.2 06:08:02 10° WNW 06:12:02 26° N 06:15:52 10° ENE visible
16 Jun 8.5 07:49:09 10° NW 07:53:27 39° NNE 07:57:31 10° E visible
17 Jun 8.6 01:10:53 10° S 01:14:06 18° SE 01:17:18 10° E visible
17 Jun 7.1 02:49:17 10° SW 02:54:11 84° SSE 02:58:58 10° ENE visible
17 Jun 8.8 04:30:44 10° W 04:35:09 34° NNW 04:39:25 10° NE visible
17 Jun 9.2 06:12:37 10° NW 06:16:39 27° N 06:20:30 10° ENE visible
17 Jun 7.9 07:53:29 10° NW 07:57:57 52° NNE 08:02:08 10° ESE visible
18 Jun 8.1 01:14:07 10° S 01:18:14 27° SE 01:22:19 10° ENE visible
18 Jun 7.5 02:53:41 10° WSW 02:58:34 69° NNW 03:03:20 10° NE visible
18 Jun 9.1 04:35:28 10° WNW 04:39:44 30° N 04:43:50 10° NE visible
18 Jun 9.0 06:17:07 10° NW 06:21:16 30° N 06:25:13 10° ENE visible
18 Jun 7.2 07:57:49 10° NW 08:02:23 74° NNE 08:06:39 10° ESE visible
19 Jun 7.6 01:17:49 10° SSW 01:22:25 42° SE 01:26:58 10° ENE visible
19 Jun 8.1 02:58:13 10° WSW 03:03:00 51° NNW 03:07:39 10° NE visible
19 Jun 9.2 04:40:11 10° WNW 04:44:20 28° N 04:48:20 10° NE visible
19 Jun 8.7 06:21:32 10° NW 06:25:51 35° NNE 06:29:56 10° E visible
19 Jun 6.9 08:02:10 10° WNW 08:06:44 76° SW 08:10:59 10° SE visible
20 Jun 7.2 01:21:49 10° SW 01:26:40 63° SE 01:31:27 10° ENE visible
20 Jun 8.6 03:02:52 10° W 03:07:30 40° NNW 03:11:59 10° NE visible
20 Jun 9.2 04:44:50 10° WNW 04:48:57 27° N 04:52:55 10° ENE visible
20 Jun 8.3 06:25:54 10° NW 06:30:23 43° NNE 06:34:37 10° E visible
20 Jun 7.1 08:06:37 10° WNW 08:11:01 48° SW 08:15:07 10° SE visible
21 Jun 7.3 01:26:04 10° WSW 01:30:59 89° NW 01:35:51 10° ENE visible
21 Jun 8.9 03:07:35 10° W 03:12:02 34° NNW 03:16:21 10° NE visible
21 Jun 9.1 04:49:24 10° NW 04:53:34 28° N 04:57:35 10° ENE visible
21 Jun 7.7 06:30:13 10° NW 06:34:51 57° NNE 06:39:12 10° ESE visible
21 Jun 7.7 08:11:13 10° WNW 08:15:12 31° SW 08:18:58 10° SSE visible
22 Jun 7.7 01:30:30 10° WSW 01:35:22 64° NNW 01:40:12 10° NE visible
22 Jun 9.2 03:12:19 10° WNW 03:16:37 30° N 03:20:48 10° NE visible
22 Jun 8.9 04:53:53 10° NW 04:58:11 31° NNE 05:02:18 10° ENE visible
22 Jun 7.1 06:34:33 10° NW 06:39:16 81° NNE 06:43:40 10° ESE visible
22 Jun 8.3 08:16:05 10° W 08:19:19 19° SW 08:22:24 10° S visible
